Location: ????????
(60.4333°N, 46.4710°E)
Time: 04:12:39
(UTC+00:00)

CZ-2C R/B - Pass Details

Date: 25 November 2020
Orbit: 705 x 907 km, 98.1° (Epoch: 19 January)

Event Time Altitude Azimuth Distance (km) Brightness Sun altitude
Rises 14:45:17 0° 153° (SSE) 3,247 6.1 -18.6°
Reaches altitude 10° 14:47:38 10° 152° (SSE) 2,295 5.3 -18.9°
Maximum altitude 14:52:38 73° 69° (ENE) 777 2.8 -19.5°
Drops below altitude 10° 14:57:28 10° 345° (NNW) 2,217 5.5 -20.1°
Sets 14:59:43 0° 344° (NNW) 3,128 6.3 -20.3°
